Location: Lecco
(45.8566°N, 9.3977°E)
Time: 03:20:06
(UTC+02:00)

S-56A Canister/Altair - Pass Details

Date: 28 July 2019
Orbit: 633 x 2499 km, 38.9° (Epoch: 23 August)

Event Time Altitude Azimuth Distance (km) Brightness Sun altitude
Exits shadow 06:00:10 - 228° (SW) 4,246 10.7 -0.8°
Rises 06:00:11 0° 228° (SW) 4,240 10.7 -0.8°
Reaches altitude 10° 06:02:49 10° 222° (SW) 3,499 10.3 -0.4°
Maximum altitude 06:11:32 46° 153° (SSE) 2,346 10.1 0.9°
Drops below altitude 10° 06:23:51 10° 87° (E) 4,891 13.2 2.8°
Sets 06:28:16 0° 82° (E) 6,053 14.0 3.5°
